This is the latest recevied weather packets stored in our database for station/object YF9UAG-17. If no packets are shown the sender has not sent any weather packets the latest 10 day(s).
| Time | Temp. | Humidity | Pressure | Rain* | Wind** | Luminosity | Snow |
|---|---|---|---|---|---|---|---|
| 1777511448 | 27.78° C | 69% | 942 hPa | - | - | 0 W/m² | - |
| 1777510526 | 27.22° C | 70% | 943 hPa | - | - | 0 W/m² | - |
| 1777508682 | 27.22° C | 72% | 942 hPa | - | - | 0 W/m² | - |
| 1777506838 | 26.67° C | 72% | 942 hPa | - | - | 0 W/m² | - |
| 1777503150 | 26.67° C | 68% | 941 hPa | - | - | 0 W/m² | - |
| 1777502228 | 27.22° C | 66% | 941 hPa | - | - | 0 W/m² | - |
| 1777501306 | 27.22° C | 67% | 941 hPa | - | - | 0 W/m² | - |
| 1777493930 | 27.78° C | 67% | 940 hPa | - | - | 0 W/m² | - |
| 1777493008 | 27.78° C | 68% | 941 hPa | - | - | 0 W/m² | - |
| 1777492086 | 27.78° C | 68% | 941 hPa | - | - | 0 W/m² | - |
| 1777491164 | 27.78° C | 68% | 941 hPa | - | - | 0 W/m² | - |
| 1777490242 | 27.78° C | 68% | 941 hPa | - | - | 0 W/m² | - |
| 1777489320 | 27.78° C | 68% | 941 hPa | - | - | 0 W/m² | - |
| 1777488398 | 28.33° C | 68% | 941 hPa | - | - | 0 W/m² | - |
| 1777482866 | 28.33° C | 69% | 942 hPa | - | - | 0 W/m² | - |
| 1777481944 | 28.33° C | 69% | 942 hPa | - | - | 0 W/m² | - |
| 1777481022 | 28.33° C | 69% | 942 hPa | - | - | 0 W/m² | - |
| 1777480100 | 28.33° C | 70% | 942 hPa | - | - | 0 W/m² | - |
| 1777469036 | 28.89° C | 70% | 942 hPa | - | - | 0 W/m² | - |
| 1777468113 | 29.44° C | 68% | 942 hPa | - | - | 0 W/m² | - |
| 1777466269 | 29.44° C | 67% | 942 hPa | - | - | 0 W/m² | - |
| 1777465347 | 29.44° C | 67% | 942 hPa | - | - | 0 W/m² | - |
| 1777462581 | 29.44° C | 67% | 941 hPa | - | - | 0 W/m² | - |
| 1777461659 | 29.44° C | 66% | 941 hPa | - | - | 0 W/m² | - |
| 1777458893 | 29.44° C | 67% | 940 hPa | - | - | 0 W/m² | - |
* Rain since midnight (hover to see other rain measurements)
** Current wind speed in m/s (hover to see current wind gust speed)